Time,TemperatureF,DewpointF,PressureIn,WindDirection,WindDirectionDegrees,WindSpeedMPH,WindSpeedGustMPH,Humidity,HourlyPrecipIn,Conditions,Clouds,dailyrainin,SoftwareType,DateUTC
2013-01-17 00:03:00,34.3,29.0,30.28,NE,45,0.0,0.0,81,0.00,,,0.00,WUHU21623XXSP,2013-01-17 08:03:00,
2013-01-17 00:08:00,34.0,28.7,30.28,NE,45,0.0,0.0,81,0.00,,,0.00,WUHU21623XXSP,2013-01-17 08:08:00,
2013-01-17 00:13:00,34.0,28.7,30.28,NE,45,0.0,0.0,81,0.00,,,0.00,WUHU21623XXSP,2013-01-17 08:13:00,
2013-01-17 00:18:00,33.8,28.5,30.28,NE,45,0.0,0.0,81,0.00,,,0.00,WUHU21623XXSP,2013-01-17 08:18:00,
2013-01-17 00:23:00,33.6,28.6,30.28,NE,45,0.0,0.0,82,0.00,,,0.00,WUHU21623XXSP,2013-01-17 08:23:00,
2013-01-17 00:28:00,33.6,28.6,30.28,NE,45,0.0,0.0,82,0.00,,,0.00,WUHU21623XXSP,2013-01-17 08:28:00,
2013-01-17 00:33:00,33.6,28.6,30.28,NE,45,0.0,0.0,82,0.00,,,0.00,WUHU21623XXSP,2013-01-17 08:33:00,
2013-01-17 00:38:00,33.6,28.6,30.28,NE,45,0.0,0.0,82,0.00,,,0.00,WUHU21623XXSP,2013-01-17 08:38:00,
2013-01-17 00:43:00,33.6,28.6,30.28,NE,45,0.0,0.0,82,0.00,,,0.00,WUHU21623XXSP,2013-01-17 08:43:00,
2013-01-17 00:48:00,33.6,28.6,30.28,NE,45,0.0,0.0,82,0.00,,,0.00,WUHU21623XXSP,2013-01-17 08:48:00,
2013-01-17 00:53:00,33.4,28.5,30.28,NE,45,0.0,0.0,82,0.00,,,0.00,WUHU21623XXSP,2013-01-17 08:53:00,
2013-01-17 00:58:00,33.4,28.5,30.28,NE,45,0.0,0.0,82,0.00,,,0.00,WUHU21623XXSP,2013-01-17 08:58:00,
2013-01-17 01:03:00,33.4,28.5,30.28,NE,45,0.0,0.0,82,0.00,,,0.00,WUHU21623XXSP,2013-01-17 09:03:00,
2013-01-17 01:08:00,33.3,28.3,30.28,NE,45,0.0,0.0,82,0.00,,,0.00,WUHU21623XXSP,2013-01-17 09:08:00,
2013-01-17 01:13:00,33.3,28.6,30.28,NE,45,0.0,0.0,83,0.00,,,0.00,WUHU21623XXSP,2013-01-17 09:13:00,
2013-01-17 01:18:00,33.3,28.6,30.28,NE,45,0.0,0.0,83,0.00,,,0.00,WUHU21623XXSP,2013-01-17 09:18:00,
2013-01-17 01:23:00,33.1,28.4,30.28,NE,45,0.0,0.0,83,0.00,,,0.00,WUHU21623XXSP,2013-01-17 09:23:00,
2013-01-17 01:28:00,32.9,28.3,30.29,NE,45,0.0,0.0,83,0.00,,,0.00,WUHU21623XXSP,2013-01-17 09:28:00,
2013-01-17 01:33:00,32.9,28.3,30.29,NE,45,0.0,0.0,83,0.00,,,0.00,WUHU21623XXSP,2013-01-17 09:33:00,
2013-01-17 01:38:00,32.7,28.1,30.28,NE,45,0.0,0.0,83,0.00,,,0.00,WUHU21623XXSP,2013-01-17 09:38:00,
2013-01-17 01:43:00,32.7,28.1,30.28,NE,45,0.0,0.0,83,0.00,,,0.00,WUHU21623XXSP,2013-01-17 09:43:00,
2013-01-17 01:48:00,32.7,28.1,30.28,NE,45,0.0,0.0,83,0.00,,,0.00,WUHU21623XXSP,2013-01-17 09:48:00,
2013-01-17 01:53:00,32.5,28.1,30.28,NE,45,0.0,0.0,83,0.00,,,0.00,WUHU21623XXSP,2013-01-17 09:53:00,
2013-01-17 01:58:00,32.5,27.9,30.28,NE,45,0.0,0.0,83,0.00,,,0.00,WUHU21623XXSP,2013-01-17 09:58:00,
2013-01-17 02:03:00,32.5,27.9,30.28,NE,45,0.0,0.0,83,0.00,,,0.00,WUHU21623XXSP,2013-01-17 10:03:00,
2013-01-17 02:08:00,32.4,28.1,30.28,NE,45,0.0,0.0,84,0.00,,,0.00,WUHU21623XXSP,2013-01-17 10:08:00,
2013-01-17 02:13:00,32.2,27.9,30.28,NE,45,0.0,0.0,84,0.00,,,0.00,WUHU21623XXSP,2013-01-17 10:13:00,
2013-01-17 02:18:00,32.2,27.9,30.28,NE,45,0.0,0.0,84,0.00,,,0.00,WUHU21623XXSP,2013-01-17 10:18:00,
2013-01-17 02:23:00,32.2,27.9,30.28,NE,45,0.0,0.0,84,0.00,,,0.00,WUHU21623XXSP,2013-01-17 10:23:00,
2013-01-17 02:28:00,32.0,27.8,30.28,NE,45,0.0,0.0,84,0.00,,,0.00,WUHU21623XXSP,2013-01-17 10:28:00,
2013-01-17 02:33:00,31.8,27.6,30.28,NE,45,0.0,0.0,84,0.00,,,0.00,WUHU21623XXSP,2013-01-17 10:33:00,
2013-01-17 02:38:00,31.8,27.6,30.28,NE,45,0.0,0.0,84,0.00,,,0.00,WUHU21623XXSP,2013-01-17 10:38:00,
2013-01-17 02:43:00,31.8,27.6,30.28,NE,45,0.0,0.0,84,0.00,,,0.00,WUHU21623XXSP,2013-01-17 10:43:00,
2013-01-17 02:48:00,31.8,27.6,30.28,NE,45,0.0,0.0,84,0.00,,,0.00,WUHU21623XXSP,2013-01-17 10:48:00,
2013-01-17 02:53:00,31.6,27.4,30.27,NE,45,0.0,0.0,84,0.00,,,0.00,WUHU21623XXSP,2013-01-17 10:53:00,
2013-01-17 02:58:00,31.6,27.4,30.27,NE,45,0.0,0.0,84,0.00,,,0.00,WUHU21623XXSP,2013-01-17 10:58:00,
2013-01-17 03:03:00,31.6,27.4,30.27,NE,45,0.0,0.0,84,0.00,,,0.00,WUHU21623XXSP,2013-01-17 11:03:00,
2013-01-17 03:08:00,31.5,27.2,30.28,NE,45,0.0,0.0,84,0.00,,,0.00,WUHU21623XXSP,2013-01-17 11:08:00,
2013-01-17 03:13:00,31.3,27.0,30.27,NE,45,0.0,0.0,84,0.00,,,0.00,WUHU21623XXSP,2013-01-17 11:13:00,
2013-01-17 03:18:00,31.3,27.0,30.27,NE,45,0.0,0.0,84,0.00,,,0.00,WUHU21623XXSP,2013-01-17 11:18:00,
2013-01-17 03:23:00,31.3,27.0,30.26,NE,45,0.0,0.0,84,0.00,,,0.00,WUHU21623XXSP,2013-01-17 11:23:00,
2013-01-17 03:28:00,31.3,27.0,30.26,NE,45,0.0,0.0,84,0.00,,,0.00,WUHU21623XXSP,2013-01-17 11:28:00,
2013-01-17 03:33:00,31.3,27.3,30.26,NE,45,0.0,0.0,85,0.00,,,0.00,WUHU21623XXSP,2013-01-17 11:33:00,
2013-01-17 03:38:00,31.1,27.1,30.26,NE,45,0.0,0.0,85,0.00,,,0.00,WUHU21623XXSP,2013-01-17 11:38:00,
2013-01-17 03:43:00,31.1,27.1,30.26,NE,45,0.0,0.0,85,0.00,,,0.00,WUHU21623XXSP,2013-01-17 11:43:00,
2013-01-17 03:48:00,31.1,27.1,30.26,NE,45,0.0,0.0,85,0.00,,,0.00,WUHU21623XXSP,2013-01-17 11:48:00,
2013-01-17 03:53:00,31.1,27.1,30.26,NE,45,0.0,0.0,85,0.00,,,0.00,WUHU21623XXSP,2013-01-17 11:53:00,
2013-01-17 03:58:00,31.1,27.1,30.26,NE,45,0.0,0.0,85,0.00,,,0.00,WUHU21623XXSP,2013-01-17 11:58:00,
2013-01-17 04:03:00,31.1,27.1,30.26,NE,45,0.0,0.0,85,0.00,,,0.00,WUHU21623XXSP,2013-01-17 12:03:00,
2013-01-17 04:08:00,31.1,27.1,30.26,NE,45,0.0,0.0,85,0.00,,,0.00,WUHU21623XXSP,2013-01-17 12:08:00,
2013-01-17 04:13:00,31.1,27.1,30.26,NE,45,0.0,0.0,85,0.00,,,0.00,WUHU21623XXSP,2013-01-17 12:13:00,
2013-01-17 04:18:00,31.1,27.1,30.26,NE,45,0.0,0.0,85,0.00,,,0.00,WUHU21623XXSP,2013-01-17 12:18:00,
2013-01-17 04:23:00,30.9,27.0,30.26,NE,45,0.0,0.0,85,0.00,,,0.00,WUHU21623XXSP,2013-01-17 12:23:00,
2013-01-17 04:28:00,30.9,27.0,30.26,NE,45,0.0,0.0,85,0.00,,,0.00,WUHU21623XXSP,2013-01-17 12:28:00,
2013-01-17 04:33:00,30.9,27.2,30.26,NE,45,0.0,0.0,86,0.00,,,0.00,WUHU21623XXSP,2013-01-17 12:33:00,
2013-01-17 04:38:00,30.9,27.2,30.26,NE,45,0.0,0.0,86,0.00,,,0.00,WUHU21623XXSP,2013-01-17 12:38:00,
2013-01-17 04:43:00,30.9,27.2,30.26,NE,45,0.0,0.0,86,0.00,,,0.00,WUHU21623XXSP,2013-01-17 12:43:00,
2013-01-17 04:48:00,30.9,27.2,30.26,NE,45,0.0,0.0,86,0.00,,,0.00,WUHU21623XXSP,2013-01-17 12:48:00,
2013-01-17 04:53:00,30.9,27.2,30.26,NE,45,0.0,0.0,86,0.00,,,0.00,WUHU21623XXSP,2013-01-17 12:53:00,
2013-01-17 04:58:00,30.9,27.2,30.26,NE,45,0.0,0.0,86,0.00,,,0.00,WUHU21623XXSP,2013-01-17 12:58:00,
2013-01-17 05:03:00,30.9,27.2,30.26,NE,45,0.0,0.0,86,0.00,,,0.00,WUHU21623XXSP,2013-01-17 13:03:00,
2013-01-17 05:08:00,30.9,27.2,30.26,NE,45,0.0,0.0,86,0.00,,,0.00,WUHU21623XXSP,2013-01-17 13:08:00,
2013-01-17 05:13:00,30.9,27.2,30.26,NE,45,0.0,0.0,86,0.00,,,0.00,WUHU21623XXSP,2013-01-17 13:13:00,
2013-01-17 05:18:00,30.7,27.2,30.26,NE,45,0.0,0.0,86,0.00,,,0.00,WUHU21623XXSP,2013-01-17 13:18:00,
2013-01-17 05:23:00,30.7,27.1,30.26,NE,45,0.0,0.0,86,0.00,,,0.00,WUHU21623XXSP,2013-01-17 13:23:00,
2013-01-17 05:28:00,30.7,27.1,30.26,NE,45,0.0,0.0,86,0.00,,,0.00,WUHU21623XXSP,2013-01-17 13:28:00,
2013-01-17 05:33:00,30.7,27.1,30.26,NE,45,0.0,0.0,86,0.00,,,0.00,WUHU21623XXSP,2013-01-17 13:33:00,
2013-01-17 05:38:00,30.7,27.1,30.25,NE,45,0.0,0.0,86,0.00,,,0.00,WUHU21623XXSP,2013-01-17 13:38:00,
2013-01-17 05:43:00,30.7,27.1,30.25,NE,45,0.0,0.0,86,0.00,,,0.00,WUHU21623XXSP,2013-01-17 13:43:00,
2013-01-17 05:48:00,30.6,26.9,30.25,NE,45,0.0,0.0,86,0.00,,,0.00,WUHU21623XXSP,2013-01-17 13:48:00,
2013-01-17 05:53:00,30.6,26.9,30.25,NE,45,0.0,0.0,86,0.00,,,0.00,WUHU21623XXSP,2013-01-17 13:53:00,
2013-01-17 05:58:00,30.6,26.9,30.25,NE,45,0.0,0.0,86,0.00,,,0.00,WUHU21623XXSP,2013-01-17 13:58:00,
2013-01-17 06:03:00,30.6,26.9,30.25,NE,45,0.0,0.0,86,0.00,,,0.00,WUHU21623XXSP,2013-01-17 14:03:00,
2013-01-17 06:08:00,30.6,26.9,30.26,NE,45,0.0,0.0,86,0.00,,,0.00,WUHU21623XXSP,2013-01-17 14:08:00,
2013-01-17 06:13:00,30.6,26.9,30.25,NE,45,0.0,0.0,86,0.00,,,0.00,WUHU21623XXSP,2013-01-17 14:13:00,
2013-01-17 06:18:00,30.4,26.7,30.25,NE,45,0.0,0.0,86,0.00,,,0.00,WUHU21623XXSP,2013-01-17 14:18:00,
2013-01-17 06:23:00,30.2,26.7,30.26,NE,45,0.0,0.0,86,0.00,,,0.00,WUHU21623XXSP,2013-01-17 14:23:00,
2013-01-17 06:28:00,30.2,26.5,30.26,NE,45,0.0,0.0,86,0.00,,,0.00,WUHU21623XXSP,2013-01-17 14:28:00,
2013-01-17 06:33:00,30.0,26.3,30.26,NE,45,0.0,0.0,86,0.00,,,0.00,WUHU21623XXSP,2013-01-17 14:33:00,
2013-01-17 06:38:00,30.0,26.6,30.26,NE,45,0.0,0.0,87,0.00,,,0.00,WUHU21623XXSP,2013-01-17 14:38:00,
2013-01-17 06:43:00,30.0,26.6,30.26,NE,45,0.0,0.0,87,0.00,,,0.00,WUHU21623XXSP,2013-01-17 14:43:00,
2013-01-17 06:48:00,30.0,26.6,30.26,NE,45,0.0,0.0,87,0.00,,,0.00,WUHU21623XXSP,2013-01-17 14:48:00,
2013-01-17 06:53:00,30.0,26.6,30.26,NE,45,0.0,0.0,87,0.00,,,0.00,WUHU21623XXSP,2013-01-17 14:53:00,
2013-01-17 06:58:00,30.0,26.6,30.26,NE,45,0.0,0.0,87,0.00,,,0.00,WUHU21623XXSP,2013-01-17 14:58:00,
2013-01-17 07:03:00,30.0,26.6,30.26,NE,45,0.0,0.0,87,0.00,,,0.00,WUHU21623XXSP,2013-01-17 15:03:00,
2013-01-17 07:08:00,29.8,26.5,30.26,NE,45,0.0,0.0,87,0.00,,,0.00,WUHU21623XXSP,2013-01-17 15:08:00,
2013-01-17 07:13:00,29.8,26.5,30.26,NE,45,0.0,0.0,87,0.00,,,0.00,WUHU21623XXSP,2013-01-17 15:13:00,
2013-01-17 07:18:00,30.0,26.6,30.26,NE,45,0.0,0.0,87,0.00,,,0.00,WUHU21623XXSP,2013-01-17 15:18:00,
2013-01-17 07:23:00,30.0,26.5,30.26,NE,45,0.0,0.0,87,0.00,,,0.00,WUHU21623XXSP,2013-01-17 15:23:00,
2013-01-17 07:28:00,29.8,26.5,30.26,NE,45,0.0,0.0,87,0.00,,,0.00,WUHU21623XXSP,2013-01-17 15:28:00,
2013-01-17 07:33:00,29.8,26.5,30.26,NE,45,0.0,0.0,87,0.00,,,0.00,WUHU21623XXSP,2013-01-17 15:33:00,
2013-01-17 07:38:00,29.8,26.5,30.26,NE,45,0.0,0.0,87,0.00,,,0.00,WUHU21623XXSP,2013-01-17 15:38:00,
2013-01-17 07:43:00,29.8,26.5,30.26,NE,45,0.0,0.0,87,0.00,,,0.00,WUHU21623XXSP,2013-01-17 15:43:00,
2013-01-17 07:48:00,29.8,26.5,30.26,NE,45,0.0,0.0,87,0.00,,,0.00,WUHU21623XXSP,2013-01-17 15:48:00,
2013-01-17 07:53:00,30.0,26.6,30.26,NE,45,0.0,0.0,87,0.00,,,0.00,WUHU21623XXSP,2013-01-17 15:53:00,
2013-01-17 07:58:00,30.0,26.6,30.27,NE,45,0.0,0.0,87,0.00,,,0.00,WUHU21623XXSP,2013-01-17 15:58:00,
2013-01-17 08:03:00,30.2,27.1,30.27,NE,45,0.0,0.0,88,0.00,,,0.00,WUHU21623XXSP,2013-01-17 16:03:00,
2013-01-17 08:08:00,30.4,27.3,30.27,NE,45,0.0,0.0,88,0.00,,,0.00,WUHU21623XXSP,2013-01-17 16:08:00,
2013-01-17 08:13:00,30.7,27.6,30.27,NE,45,0.0,0.0,88,0.00,,,0.00,WUHU21623XXSP,2013-01-17 16:13:00,
2013-01-17 08:18:00,30.9,27.8,30.27,NE,45,0.0,0.0,88,0.00,,,0.00,WUHU21623XXSP,2013-01-17 16:18:00,
2013-01-17 08:23:00,31.5,28.4,30.28,NE,45,0.0,0.0,88,0.00,,,0.00,WUHU21623XXSP,2013-01-17 16:23:00,
2013-01-17 08:28:00,31.8,28.7,30.28,NE,45,0.0,0.0,88,0.00,,,0.00,WUHU21623XXSP,2013-01-17 16:28:00,
2013-01-17 08:33:00,32.2,29.4,30.28,NE,45,0.0,0.0,89,0.00,,,0.00,WUHU21623XXSP,2013-01-17 16:33:00,
2013-01-17 08:38:00,32.7,29.8,30.28,NE,45,0.0,0.0,89,0.00,,,0.00,WUHU21623XXSP,2013-01-17 16:38:00,
2013-01-17 08:43:00,33.1,30.2,30.28,NE,45,0.0,0.0,89,0.00,,,0.00,WUHU21623XXSP,2013-01-17 16:43:00,
2013-01-17 08:48:00,33.6,30.6,30.28,NE,45,0.0,0.0,89,0.00,,,0.00,WUHU21623XXSP,2013-01-17 16:48:00,
2013-01-17 08:53:00,34.3,31.4,30.28,NE,45,0.0,0.0,89,0.00,,,0.00,WUHU21623XXSP,2013-01-17 16:53:00,
2013-01-17 08:58:00,34.7,31.7,30.29,NE,45,0.0,0.0,89,0.00,,,0.00,WUHU21623XXSP,2013-01-17 16:58:00,
2013-01-17 09:03:00,35.2,32.3,30.29,NE,45,0.0,0.0,89,0.00,,,0.00,WUHU21623XXSP,2013-01-17 17:03:00,
2013-01-17 09:08:00,36.7,34.0,30.29,NE,45,0.0,0.0,90,0.00,,,0.00,WUHU21623XXSP,2013-01-17 17:08:00,
2013-01-17 09:13:00,37.8,34.8,30.29,ENE,67,0.0,0.0,89,0.00,,,0.00,WUHU21623XXSP,2013-01-17 17:13:00,
2013-01-17 09:18:00,38.8,35.9,30.29,ENE,67,0.0,0.0,89,0.00,,,0.00,WUHU21623XXSP,2013-01-17 17:18:00,
2013-01-17 09:23:00,40.1,37.1,30.29,ENE,67,0.0,0.0,89,0.00,,,0.00,WUHU21623XXSP,2013-01-17 17:23:00,
2013-01-17 09:28:00,40.8,37.8,30.29,ENE,67,0.0,0.0,89,0.00,,,0.00,WUHU21623XXSP,2013-01-17 17:28:00,
2013-01-17 09:33:00,41.4,38.4,30.29,ENE,67,0.0,0.0,89,0.00,,,0.00,WUHU21623XXSP,2013-01-17 17:33:00,
2013-01-17 09:38:00,42.4,39.4,30.28,ENE,67,0.0,0.0,89,0.00,,,0.00,WUHU21623XXSP,2013-01-17 17:38:00,
2013-01-17 09:43:00,43.0,39.6,30.28,ENE,67,0.0,0.0,89,0.00,,,0.00,WUHU21623XXSP,2013-01-17 17:43:00,
2013-01-17 09:48:00,43.5,39.9,30.29,NNW,337,7.6,7.6,87,0.00,,,0.00,WUHU21623XXSP,2013-01-17 17:48:00,
2013-01-17 09:53:00,45.0,40.7,30.29,NNW,337,0.0,7.6,85,0.00,,,0.00,WUHU21623XXSP,2013-01-17 17:53:00,
2013-01-17 09:58:00,45.5,40.7,30.29,NNW,337,0.0,0.0,83,0.00,,,0.00,WUHU21623XXSP,2013-01-17 17:58:00,
2013-01-17 10:03:00,46.0,40.3,30.28,NNW,337,3.4,3.4,80,0.00,,,0.00,WUHU21623XXSP,2013-01-17 18:03:00,
2013-01-17 10:08:00,46.8,39.9,30.28,NNW,337,0.0,3.4,77,0.00,,,0.00,WUHU21623XXSP,2013-01-17 18:08:00,
2013-01-17 10:13:00,47.1,39.6,30.28,NNW,337,0.0,0.0,75,0.00,,,0.00,WUHU21623XXSP,2013-01-17 18:13:00,
2013-01-17 10:18:00,47.5,39.6,30.28,NNW,337,0.0,0.0,74,0.00,,,0.00,WUHU21623XXSP,2013-01-17 18:18:00,
2013-01-17 10:23:00,48.0,39.0,30.28,NNW,337,0.0,0.0,71,0.00,,,0.00,WUHU21623XXSP,2013-01-17 18:23:00,
2013-01-17 10:28:00,48.4,39.0,30.27,NNW,337,0.0,0.0,70,0.00,,,0.00,WUHU21623XXSP,2013-01-17 18:28:00,
2013-01-17 10:33:00,48.7,39.0,30.28,NNW,337,0.0,0.0,69,0.00,,,0.00,WUHU21623XXSP,2013-01-17 18:33:00,
2013-01-17 10:38:00,48.9,39.0,30.28,NNW,337,0.0,0.0,68,0.00,,,0.00,WUHU21623XXSP,2013-01-17 18:38:00,
2013-01-17 10:43:00,49.3,39.1,30.27,NNW,337,0.0,3.4,68,0.00,,,0.00,WUHU21623XXSP,2013-01-17 18:43:00,
2013-01-17 10:48:00,49.6,38.7,30.26,NNW,337,0.0,3.4,66,0.00,,,0.00,WUHU21623XXSP,2013-01-17 18:48:00,
2013-01-17 10:53:00,50.2,39.1,30.26,NNW,337,0.0,0.0,66,0.00,,,0.00,WUHU21623XXSP,2013-01-17 18:53:00,
2013-01-17 10:58:00,50.5,39.2,30.26,WNW,292,1.3,1.3,65,0.00,,,0.00,WUHU21623XXSP,2013-01-17 18:58:00,
2013-01-17 11:03:00,50.9,39.3,30.26,WNW,292,0.0,1.3,65,0.00,,,0.00,WUHU21623XXSP,2013-01-17 19:03:00,
2013-01-17 11:08:00,51.4,39.6,30.26,West,270,0.0,0.0,64,0.00,,,0.00,WUHU21623XXSP,2013-01-17 19:08:00,
2013-01-17 11:13:00,51.8,39.1,30.26,West,270,0.0,0.0,62,0.00,,,0.00,WUHU21623XXSP,2013-01-17 19:13:00,
2013-01-17 11:18:00,52.2,39.1,30.25,West,270,0.0,0.0,61,0.00,,,0.00,WUHU21623XXSP,2013-01-17 19:18:00,
2013-01-17 11:23:00,52.5,39.0,30.25,West,270,0.0,0.0,60,0.00,,,0.00,WUHU21623XXSP,2013-01-17 19:23:00,
2013-01-17 11:28:00,52.9,39.4,30.24,West,270,0.0,0.0,60,0.00,,,0.00,WUHU21623XXSP,2013-01-17 19:28:00,
2013-01-17 11:33:00,53.4,39.9,30.24,West,270,2.7,2.7,60,0.00,,,0.00,WUHU21623XXSP,2013-01-17 19:33:00,
2013-01-17 11:38:00,54.0,40.0,30.24,WSW,247,0.7,2.7,59,0.00,,,0.00,WUHU21623XXSP,2013-01-17 19:38:00,
2013-01-17 11:43:00,54.1,40.1,30.23,WSW,247,0.0,0.7,59,0.00,,,0.00,WUHU21623XXSP,2013-01-17 19:43:00,
2013-01-17 11:48:00,54.5,39.5,30.23,West,270,0.0,0.0,57,0.00,,,0.00,WUHU21623XXSP,2013-01-17 19:48:00,
2013-01-17 11:53:00,54.9,39.4,30.23,WNW,292,0.0,0.0,56,0.00,,,0.00,WUHU21623XXSP,2013-01-17 19:53:00,
2013-01-17 11:58:00,55.2,38.8,30.22,NW,315,0.0,0.0,54,0.00,,,0.00,WUHU21623XXSP,2013-01-17 19:58:00,
2013-01-17 12:03:00,55.6,39.1,30.22,NW,315,1.1,1.1,54,0.00,,,0.00,WUHU21623XXSP,2013-01-17 20:03:00,
2013-01-17 12:08:00,55.9,39.0,30.22,North,0,0.0,1.1,53,0.00,,,0.00,WUHU21623XXSP,2013-01-17 20:08:00,
2013-01-17 12:13:00,56.3,39.2,30.22,North,0,0.0,0.0,53,0.00,,,0.00,WUHU21623XXSP,2013-01-17 20:13:00,
2013-01-17 12:18:00,56.8,39.9,30.21,North,0,4.7,4.7,53,0.00,,,0.00,WUHU21623XXSP,2013-01-17 20:18:00,
2013-01-17 12:23:00,57.0,39.1,30.21,North,0,5.8,6.5,51,0.00,,,0.00,WUHU21623XXSP,2013-01-17 20:23:00,
2013-01-17 12:28:00,57.4,39.5,30.21,North,0,0.0,6.5,51,0.00,,,0.00,WUHU21623XXSP,2013-01-17 20:28:00,
2013-01-17 12:33:00,57.7,39.8,30.21,North,0,0.0,0.0,51,0.00,,,0.00,WUHU21623XXSP,2013-01-17 20:33:00,
2013-01-17 12:38:00,58.1,39.6,30.20,North,0,0.0,0.0,50,0.00,,,0.00,WUHU21623XXSP,2013-01-17 20:38:00,
2013-01-17 12:43:00,58.3,39.2,30.21,North,0,0.0,1.1,49,0.00,,,0.00,WUHU21623XXSP,2013-01-17 20:43:00,
2013-01-17 12:48:00,58.6,39.6,30.21,North,0,0.0,1.1,49,0.00,,,0.00,WUHU21623XXSP,2013-01-17 20:48:00,
2013-01-17 12:53:00,58.8,39.1,30.20,North,0,0.0,0.0,48,0.00,,,0.00,WUHU21623XXSP,2013-01-17 20:53:00,
2013-01-17 12:58:00,58.8,38.6,30.20,North,0,0.0,2.2,47,0.00,,,0.00,WUHU21623XXSP,2013-01-17 20:58:00,
2013-01-17 13:03:00,59.2,38.3,30.20,North,0,0.0,2.2,46,0.00,,,0.00,WUHU21623XXSP,2013-01-17 21:03:00,
2013-01-17 13:08:00,59.5,39.2,30.19,North,0,0.0,0.0,47,0.00,,,0.00,WUHU21623XXSP,2013-01-17 21:08:00,
2013-01-17 13:13:00,59.7,38.8,30.19,North,0,0.0,0.0,46,0.00,,,0.00,WUHU21623XXSP,2013-01-17 21:13:00,
2013-01-17 13:18:00,60.1,39.1,30.19,North,0,0.0,1.6,46,0.00,,,0.00,WUHU21623XXSP,2013-01-17 21:18:00,
2013-01-17 13:23:00,60.4,38.9,30.18,North,0,0.0,1.6,45,0.00,,,0.00,WUHU21623XXSP,2013-01-17 21:23:00,
2013-01-17 13:28:00,60.6,38.5,30.19,North,0,3.1,3.1,44,0.00,,,0.00,WUHU21623XXSP,2013-01-17 21:28:00,
2013-01-17 13:34:00,60.6,38.5,30.18,North,0,0.0,3.1,45,0.00,,,0.00,WUHU21623XXSP,2013-01-17 21:34:00,
2013-01-17 13:39:00,61.0,38.8,30.18,North,0,8.5,8.5,44,0.00,,,0.00,WUHU21623XXSP,2013-01-17 21:39:00,
2013-01-17 13:44:00,61.0,38.8,30.18,North,0,0.0,8.5,44,0.00,,,0.00,WUHU21623XXSP,2013-01-17 21:44:00,
2013-01-17 13:49:00,61.2,38.9,30.18,North,0,0.0,0.0,44,0.00,,,0.00,WUHU21623XXSP,2013-01-17 21:49:00,
2013-01-17 13:54:00,61.3,39.7,30.18,North,0,0.0,0.0,45,0.00,,,0.00,WUHU21623XXSP,2013-01-17 21:54:00,
2013-01-17 13:59:00,61.5,39.8,30.17,North,0,0.0,0.0,45,0.00,,,0.00,WUHU21623XXSP,2013-01-17 21:59:00,
2013-01-17 14:04:00,61.5,39.8,30.17,North,0,0.4,0.4,45,0.00,,,0.00,WUHU21623XXSP,2013-01-17 22:04:00,
2013-01-17 14:09:00,61.7,39.4,30.17,North,0,1.1,2.7,44,0.00,,,0.00,WUHU21623XXSP,2013-01-17 22:09:00,
2013-01-17 14:14:00,61.9,39.0,30.17,North,0,2.0,2.7,43,0.00,,,0.00,WUHU21623XXSP,2013-01-17 22:14:00,
2013-01-17 14:19:00,61.7,39.4,30.17,North,0,3.1,3.1,44,0.00,,,0.00,WUHU21623XXSP,2013-01-17 22:19:00,
2013-01-17 14:24:00,61.7,38.9,30.16,NNE,22,1.3,9.4,43,0.00,,,0.00,WUHU21623XXSP,2013-01-17 22:24:00,
2013-01-17 14:29:00,61.7,38.9,30.17,North,0,4.3,9.4,43,0.00,,,0.00,WUHU21623XXSP,2013-01-17 22:29:00,
2013-01-17 14:33:00,61.7,38.9,30.17,North,0,0.0,4.3,43,0.00,,,0.00,WUHU21623XXSP,2013-01-17 22:33:00,
2013-01-17 14:38:00,61.7,38.9,30.17,North,0,0.0,0.2,43,0.00,,,0.00,WUHU21623XXSP,2013-01-17 22:38:00,
2013-01-17 14:43:00,61.5,38.7,30.17,North,0,0.0,0.2,43,0.00,,,0.00,WUHU21623XXSP,2013-01-17 22:43:00,
2013-01-17 14:48:00,61.5,38.7,30.17,North,0,0.0,0.0,43,0.00,,,0.00,WUHU21623XXSP,2013-01-17 22:48:00,
2013-01-17 14:53:00,61.5,38.7,30.16,North,0,0.0,0.0,43,0.00,,,0.00,WUHU21623XXSP,2013-01-17 22:53:00,
2013-01-17 14:58:00,61.5,38.7,30.16,North,0,1.3,1.3,43,0.00,,,0.00,WUHU21623XXSP,2013-01-17 22:58:00,
2013-01-17 15:03:00,61.5,38.7,30.16,North,0,0.0,1.3,43,0.00,,,0.00,WUHU21623XXSP,2013-01-17 23:03:00,
2013-01-17 15:08:00,61.5,38.7,30.16,North,0,0.0,4.5,43,0.00,,,0.00,WUHU21623XXSP,2013-01-17 23:08:00,
2013-01-17 15:13:00,61.5,38.7,30.16,North,0,4.5,4.5,43,0.00,,,0.00,WUHU21623XXSP,2013-01-17 23:13:00,
2013-01-17 15:18:00,61.5,38.7,30.16,NNW,337,0.0,4.5,43,0.00,,,0.00,WUHU21623XXSP,2013-01-17 23:18:00,
2013-01-17 15:23:00,61.5,38.7,30.16,NNW,337,4.3,4.3,43,0.00,,,0.00,WUHU21623XXSP,2013-01-17 23:23:00,
2013-01-17 15:28:00,61.5,38.7,30.16,NNW,337,0.0,4.3,43,0.00,,,0.00,WUHU21623XXSP,2013-01-17 23:28:00,
2013-01-17 15:34:00,61.5,38.7,30.16,NNW,337,0.0,0.0,43,0.00,,,0.00,WUHU21623XXSP,2013-01-17 23:34:00,
2013-01-17 15:39:00,61.3,38.5,30.16,NNW,337,0.0,0.0,43,0.00,,,0.00,WUHU21623XXSP,2013-01-17 23:39:00,
2013-01-17 15:44:00,61.3,38.5,30.16,NNW,337,0.0,0.0,43,0.00,,,0.00,WUHU21623XXSP,2013-01-17 23:44:00,
2013-01-17 15:49:00,61.3,38.5,30.16,NNW,337,0.0,0.0,43,0.00,,,0.00,WUHU21623XXSP,2013-01-17 23:49:00,
2013-01-17 15:54:00,61.3,38.5,30.16,NNW,337,0.0,0.0,43,0.00,,,0.00,WUHU21623XXSP,2013-01-17 23:54:00,
2013-01-17 15:59:00,61.2,38.4,30.16,NNW,337,0.0,0.0,43,0.00,,,0.00,WUHU21623XXSP,2013-01-17 23:59:00,
2013-01-17 16:04:00,61.0,38.4,30.16,NNW,337,0.0,0.0,43,0.00,,,0.00,WUHU21623XXSP,2013-01-18 00:04:00,
2013-01-17 16:09:00,61.0,38.2,30.15,NNW,337,0.0,0.0,43,0.00,,,0.00,WUHU21623XXSP,2013-01-18 00:09:00,
2013-01-17 16:14:00,61.0,38.2,30.16,NNW,337,0.0,0.0,43,0.00,,,0.00,WUHU21623XXSP,2013-01-18 00:14:00,
2013-01-17 16:19:00,60.6,37.9,30.16,NNW,337,0.0,0.0,43,0.00,,,0.00,WUHU21623XXSP,2013-01-18 00:19:00,
2013-01-17 16:24:00,60.4,37.7,30.16,NNW,337,0.0,0.0,43,0.00,,,0.00,WUHU21623XXSP,2013-01-18 00:24:00,
2013-01-17 16:29:00,60.1,37.4,30.15,NNW,337,0.0,0.0,43,0.00,,,0.00,WUHU21623XXSP,2013-01-18 00:29:00,
2013-01-17 16:34:00,59.9,37.8,30.16,NNW,337,0.0,0.0,44,0.00,,,0.00,WUHU21623XXSP,2013-01-18 00:34:00,
2013-01-17 16:39:00,59.7,37.7,30.15,NNW,337,0.0,0.0,44,0.00,,,0.00,WUHU21623XXSP,2013-01-18 00:39:00,
2013-01-17 16:44:00,59.5,37.5,30.16,NNW,337,0.0,0.0,44,0.00,,,0.00,WUHU21623XXSP,2013-01-18 00:44:00,
2013-01-17 16:49:00,59.0,37.6,30.16,NNW,337,0.0,0.0,45,0.00,,,0.00,WUHU21623XXSP,2013-01-18 00:49:00,
2013-01-17 16:54:00,58.8,37.4,30.16,NNW,337,0.0,0.0,45,0.00,,,0.00,WUHU21623XXSP,2013-01-18 00:54:00,
2013-01-17 16:59:00,58.6,37.8,30.16,NNW,337,0.0,0.0,46,0.00,,,0.00,WUHU21623XXSP,2013-01-18 00:59:00,
2013-01-17 17:04:00,57.9,37.8,30.16,NNW,337,0.0,0.0,47,0.00,,,0.00,WUHU21623XXSP,2013-01-18 01:04:00,
2013-01-17 17:09:00,57.2,37.9,30.16,NNW,337,0.0,0.0,49,0.00,,,0.00,WUHU21623XXSP,2013-01-18 01:09:00,
2013-01-17 17:14:00,56.8,38.5,30.16,NNW,337,0.0,0.0,50,0.00,,,0.00,WUHU21623XXSP,2013-01-18 01:14:00,
2013-01-17 17:19:00,55.9,38.5,30.16,NNW,337,0.0,0.0,52,0.00,,,0.00,WUHU21623XXSP,2013-01-18 01:19:00,
2013-01-17 17:24:00,55.4,38.4,30.16,NNW,337,0.0,0.0,53,0.00,,,0.00,WUHU21623XXSP,2013-01-18 01:24:00,
2013-01-17 17:29:00,54.9,38.4,30.16,NNW,337,0.0,0.0,54,0.00,,,0.00,WUHU21623XXSP,2013-01-18 01:29:00,
2013-01-17 17:34:00,54.1,38.2,30.16,NNW,337,0.0,0.0,55,0.00,,,0.00,WUHU21623XXSP,2013-01-18 01:34:00,
2013-01-17 17:39:00,53.4,38.0,30.16,NNW,337,0.0,0.0,56,0.00,,,0.00,WUHU21623XXSP,2013-01-18 01:39:00,
2013-01-17 17:44:00,53.2,37.9,30.16,NNW,337,0.0,0.0,56,0.00,,,0.00,WUHU21623XXSP,2013-01-18 01:44:00,
2013-01-17 17:49:00,52.3,37.5,30.16,NNW,337,0.0,0.0,57,0.00,,,0.00,WUHU21623XXSP,2013-01-18 01:49:00,
2013-01-17 17:54:00,52.0,37.3,30.17,NNW,337,0.0,0.0,58,0.00,,,0.00,WUHU21623XXSP,2013-01-18 01:54:00,
2013-01-17 17:59:00,51.4,37.2,30.17,NNW,337,0.0,0.0,58,0.00,,,0.00,WUHU21623XXSP,2013-01-18 01:59:00,
2013-01-17 18:04:00,50.7,37.3,30.17,NNW,337,0.0,0.0,60,0.00,,,0.00,WUHU21623XXSP,2013-01-18 02:04:00,
2013-01-17 18:09:00,50.5,37.2,30.17,NNW,337,0.0,0.0,60,0.00,,,0.00,WUHU21623XXSP,2013-01-18 02:09:00,
2013-01-17 18:14:00,50.2,36.8,30.17,NNW,337,0.0,0.0,60,0.00,,,0.00,WUHU21623XXSP,2013-01-18 02:14:00,
2013-01-17 18:19:00,49.6,36.9,30.17,NNW,337,0.0,0.0,61,0.00,,,0.00,WUHU21623XXSP,2013-01-18 02:19:00,
2013-01-17 18:24:00,49.3,36.8,30.17,NNW,337,0.0,0.0,62,0.00,,,0.00,WUHU21623XXSP,2013-01-18 02:24:00,
2013-01-17 18:29:00,48.9,36.6,30.17,NNW,337,0.0,0.0,63,0.00,,,0.00,WUHU21623XXSP,2013-01-18 02:29:00,
2013-01-17 18:34:00,48.6,36.9,30.17,NNW,337,0.0,0.0,64,0.00,,,0.00,WUHU21623XXSP,2013-01-18 02:34:00,
2013-01-17 18:39:00,48.2,36.6,30.17,NNW,337,0.0,0.0,64,0.00,,,0.00,WUHU21623XXSP,2013-01-18 02:39:00,
2013-01-17 18:44:00,48.0,36.4,30.17,NNW,337,0.0,0.0,64,0.00,,,0.00,WUHU21623XXSP,2013-01-18 02:44:00,
2013-01-17 18:49:00,47.5,36.3,30.17,NNW,337,0.0,0.0,65,0.00,,,0.00,WUHU21623XXSP,2013-01-18 02:49:00,
2013-01-17 18:54:00,47.3,36.5,30.17,NNW,337,0.0,0.0,66,0.00,,,0.00,WUHU21623XXSP,2013-01-18 02:54:00,
2013-01-17 18:59:00,47.1,36.3,30.17,NNW,337,0.0,0.0,66,0.00,,,0.00,WUHU21623XXSP,2013-01-18 02:59:00,
2013-01-17 19:04:00,46.6,36.0,30.17,NNW,337,0.0,0.0,67,0.00,,,0.00,WUHU21623XXSP,2013-01-18 03:04:00,
2013-01-17 19:09:00,46.2,35.9,30.17,NNW,337,0.0,0.0,67,0.00,,,0.00,WUHU21623XXSP,2013-01-18 03:09:00,
2013-01-17 19:14:00,46.2,36.2,30.17,NNW,337,0.0,0.0,68,0.00,,,0.00,WUHU21623XXSP,2013-01-18 03:14:00,
2013-01-17 19:19:00,45.7,35.7,30.17,NNW,337,0.0,0.0,68,0.00,,,0.00,WUHU21623XXSP,2013-01-18 03:19:00,
2013-01-17 19:24:00,45.5,35.9,30.17,NNW,337,0.0,0.0,69,0.00,,,0.00,WUHU21623XXSP,2013-01-18 03:24:00,
2013-01-17 19:29:00,45.1,35.7,30.17,NNW,337,0.0,0.0,69,0.00,,,0.00,WUHU21623XXSP,2013-01-18 03:29:00,
2013-01-17 19:34:00,45.0,35.4,30.17,NNW,337,0.0,0.0,70,0.00,,,0.00,WUHU21623XXSP,2013-01-18 03:34:00,
2013-01-17 19:39:00,44.6,35.6,30.17,NNW,337,0.0,0.0,70,0.00,,,0.00,WUHU21623XXSP,2013-01-18 03:39:00,
2013-01-17 19:44:00,44.4,35.3,30.17,NNW,337,0.0,0.0,70,0.00,,,0.00,WUHU21623XXSP,2013-01-18 03:44:00,
2013-01-17 19:49:00,44.1,35.3,30.17,NNW,337,0.0,0.0,71,0.00,,,0.00,WUHU21623XXSP,2013-01-18 03:49:00,
2013-01-17 19:54:00,43.9,35.1,30.17,NNW,337,0.0,0.0,71,0.00,,,0.00,WUHU21623XXSP,2013-01-18 03:54:00,
2013-01-17 19:59:00,43.5,34.8,30.17,NNW,337,0.0,0.0,71,0.00,,,0.00,WUHU21623XXSP,2013-01-18 03:59:00,
2013-01-17 20:04:00,43.3,34.9,30.17,NNW,337,0.0,0.0,72,0.00,,,0.00,WUHU21623XXSP,2013-01-18 04:04:00,
2013-01-17 20:09:00,43.2,34.8,30.17,NNW,337,0.0,0.0,72,0.00,,,0.00,WUHU21623XXSP,2013-01-18 04:09:00,
2013-01-17 20:14:00,43.0,34.6,30.17,NNW,337,0.0,0.0,72,0.00,,,0.00,WUHU21623XXSP,2013-01-18 04:14:00,
2013-01-17 20:19:00,42.6,34.6,30.18,NNW,337,0.0,0.0,73,0.00,,,0.00,WUHU21623XXSP,2013-01-18 04:19:00,
2013-01-17 20:24:00,42.6,34.6,30.18,NNW,337,0.0,0.0,73,0.00,,,0.00,WUHU21623XXSP,2013-01-18 04:24:00,
2013-01-17 20:29:00,42.3,34.2,30.18,NNW,337,0.0,0.0,73,0.00,,,0.00,WUHU21623XXSP,2013-01-18 04:29:00,
2013-01-17 20:34:00,42.1,34.1,30.17,NNW,337,0.0,0.0,73,0.00,,,0.00,WUHU21623XXSP,2013-01-18 04:34:00,
2013-01-17 20:39:00,41.9,33.9,30.17,NNW,337,0.0,0.0,73,0.00,,,0.00,WUHU21623XXSP,2013-01-18 04:39:00,
2013-01-17 20:44:00,41.7,34.0,30.17,NNW,337,0.0,0.0,74,0.00,,,0.00,WUHU21623XXSP,2013-01-18 04:44:00,
2013-01-17 20:49:00,41.5,33.8,30.17,NNW,337,0.0,0.0,74,0.00,,,0.00,WUHU21623XXSP,2013-01-18 04:49:00,
2013-01-17 20:54:00,41.5,33.8,30.18,NNW,337,0.0,0.0,74,0.00,,,0.00,WUHU21623XXSP,2013-01-18 04:54:00,
2013-01-17 20:59:00,41.4,33.8,30.17,NNW,337,0.0,0.0,74,0.00,,,0.00,WUHU21623XXSP,2013-01-18 04:59:00,
2013-01-17 21:00:00,41.4,33.7,30.17,NNW,337,0.0,0.0,74,0.00,,,0.00,WUHU21623XXSP,2013-01-18 05:00:00,
2013-01-17 21:02:00,41.4,33.7,30.17,NNW,337,0.0,0.0,74,0.00,,,0.00,WUHU21623XXSP,2013-01-18 05:02:00,
2013-01-17 21:03:00,41.2,33.8,30.18,NNW,337,0.0,0.0,75,0.00,,,0.00,WUHU21623XXSP,2013-01-18 05:03:00,
2013-01-17 21:08:00,41.2,33.8,30.18,NNW,337,0.0,0.0,75,0.00,,,0.00,WUHU21623XXSP,2013-01-18 05:08:00,
2013-01-17 21:13:00,41.0,33.6,30.18,NNW,337,0.0,0.0,75,0.00,,,0.00,WUHU21623XXSP,2013-01-18 05:13:00,
2013-01-17 21:18:00,40.8,33.4,30.18,NNW,337,0.0,0.0,75,0.00,,,0.00,WUHU21623XXSP,2013-01-18 05:18:00,
2013-01-17 21:23:00,40.6,33.3,30.18,NNW,337,0.0,0.0,75,0.00,,,0.00,WUHU21623XXSP,2013-01-18 05:23:00,
2013-01-17 21:28:00,40.6,33.6,30.18,NNW,337,0.0,0.0,76,0.00,,,0.00,WUHU21623XXSP,2013-01-18 05:28:00,
2013-01-17 21:33:00,40.5,33.4,30.18,NNW,337,0.0,0.0,76,0.00,,,0.00,WUHU21623XXSP,2013-01-18 05:33:00,
2013-01-17 21:38:00,40.3,33.3,30.18,NNW,337,0.0,0.0,76,0.00,,,0.00,WUHU21623XXSP,2013-01-18 05:38:00,
2013-01-17 21:43:00,40.1,33.1,30.18,NNW,337,0.0,0.0,76,0.00,,,0.00,WUHU21623XXSP,2013-01-18 05:43:00,
2013-01-17 21:48:00,39.9,33.1,30.18,NNW,337,0.0,0.0,76,0.00,,,0.00,WUHU21623XXSP,2013-01-18 05:48:00,
2013-01-17 21:53:00,39.9,32.9,30.18,NNW,337,0.0,0.0,76,0.00,,,0.00,WUHU21623XXSP,2013-01-18 05:53:00,
2013-01-17 21:58:00,39.7,32.8,30.18,NNW,337,0.0,0.0,76,0.00,,,0.00,WUHU21623XXSP,2013-01-18 05:58:00,
2013-01-17 22:03:00,39.6,32.8,30.18,NNW,337,0.0,0.0,77,0.00,,,0.00,WUHU21623XXSP,2013-01-18 06:03:00,
2013-01-17 22:08:00,39.4,32.8,30.18,NNW,337,0.0,0.0,77,0.00,,,0.00,WUHU21623XXSP,2013-01-18 06:08:00,
2013-01-17 22:13:00,39.4,32.8,30.18,NNW,337,0.0,0.0,77,0.00,,,0.00,WUHU21623XXSP,2013-01-18 06:13:00,
2013-01-17 22:18:00,39.0,32.4,30.19,NNW,337,0.0,0.0,77,0.00,,,0.00,WUHU21623XXSP,2013-01-18 06:18:00,
2013-01-17 22:23:00,39.0,32.4,30.18,NNW,337,0.0,0.0,77,0.00,,,0.00,WUHU21623XXSP,2013-01-18 06:23:00,
2013-01-17 22:28:00,38.8,32.2,30.18,NNW,337,0.0,0.0,77,0.00,,,0.00,WUHU21623XXSP,2013-01-18 06:28:00,
2013-01-17 22:33:00,38.8,32.6,30.18,NNW,337,0.0,0.0,78,0.00,,,0.00,WUHU21623XXSP,2013-01-18 06:33:00,
2013-01-17 22:38:00,38.5,32.2,30.18,NNW,337,0.0,0.0,78,0.00,,,0.00,WUHU21623XXSP,2013-01-18 06:38:00,
2013-01-17 22:43:00,38.5,32.2,30.19,NNW,337,0.0,0.0,78,0.00,,,0.00,WUHU21623XXSP,2013-01-18 06:43:00,
2013-01-17 22:48:00,38.3,32.4,30.18,NNW,337,0.0,0.0,79,0.00,,,0.00,WUHU21623XXSP,2013-01-18 06:48:00,
2013-01-17 22:53:00,38.1,32.2,30.18,NNW,337,0.0,0.0,79,0.00,,,0.00,WUHU21623XXSP,2013-01-18 06:53:00,
2013-01-17 22:58:00,38.1,32.2,30.18,NNW,337,0.0,0.0,79,0.00,,,0.00,WUHU21623XXSP,2013-01-18 06:58:00,
2013-01-17 23:03:00,37.9,32.0,30.19,NNW,337,0.0,0.0,79,0.00,,,0.00,WUHU21623XXSP,2013-01-18 07:03:00,
2013-01-17 23:08:00,37.9,32.0,30.19,NNW,337,0.0,0.0,79,0.00,,,0.00,WUHU21623XXSP,2013-01-18 07:08:00,
2013-01-17 23:13:00,37.8,31.8,30.19,NNW,337,0.0,0.0,79,0.00,,,0.00,WUHU21623XXSP,2013-01-18 07:13:00,
2013-01-17 23:18:00,37.6,31.7,30.19,NNW,337,0.0,0.0,79,0.00,,,0.00,WUHU21623XXSP,2013-01-18 07:18:00,
2013-01-17 23:23:00,37.6,32.0,30.19,NNW,337,0.0,0.0,80,0.00,,,0.00,WUHU21623XXSP,2013-01-18 07:23:00,
2013-01-17 23:28:00,37.4,31.8,30.19,NNW,337,0.0,0.0,80,0.00,,,0.00,WUHU21623XXSP,2013-01-18 07:28:00,
2013-01-17 23:33:00,37.2,31.6,30.19,NNW,337,0.0,0.0,80,0.00,,,0.00,WUHU21623XXSP,2013-01-18 07:33:00,
2013-01-17 23:38:00,37.2,31.6,30.20,NNW,337,0.0,0.0,80,0.00,,,0.00,WUHU21623XXSP,2013-01-18 07:38:00,
2013-01-17 23:43:00,37.2,31.6,30.20,NNW,337,0.0,0.0,80,0.00,,,0.00,WUHU21623XXSP,2013-01-18 07:43:00,
2013-01-17 23:48:00,37.0,31.5,30.20,NNW,337,0.0,0.0,80,0.00,,,0.00,WUHU21623XXSP,2013-01-18 07:48:00,
2013-01-17 23:53:00,37.0,31.5,30.20,NNW,337,0.0,0.0,80,0.00,,,0.00,WUHU21623XXSP,2013-01-18 07:53:00,
2013-01-17 23:58:00,36.9,31.6,30.19,NNW,337,0.0,0.0,81,0.00,,,0.00,WUHU21623XXSP,2013-01-18 07:58:00,